Flag for Costa Rica Weather past 2 weeks in Alajuela, Costa Rica

Now
73 °F

Passing clouds.


Feels Like: 76 °F
Forecast: 69 / 86 °F
Wind: 2 mph from East

Location: Juan Santamaria

Current Time: Aug 29, 2015 at 2:24:29 AM

Latest Report: Aug 29, 2015 at 1:00 AM


Visibility: N/A

Pressure: 29.98 "Hg (26.85 "Hg at 955m altitude)

Humidity: 69%

Dew point: 63 °F

Location of AlajuelaLocation

Historic Weather in Alajuela — Graph

°F

Alajuela temperature yesterday

Maximum temperature yesterday: 86 °F (at 12:00 PM)
Minimum temperature yesterday: 66 °F (at 5:00 AM)
Average temperature yesterday: 75 °F

Past Weeks' High & Low Weather Summary

 TemperatureHumidityPressure
High86 °F (Aug 19, 12:00 PM)100% (Aug 22, 4:00 PM)30.09 "Hg (Aug 22, 4:00 PM)
Low63 °F (Aug 25, 2:00 AM)37% (Aug 26, 10:00 AM)28.88 "Hg (Aug 24, 12:00 AM)
Average74 °F70%29.99 "Hg
* Reported Aug 14 1:00 AM — Aug 29 1:00 AM, Alajuela, Weather by CustomWeather, © 2015

Note: Actual official high and low records may vary slightly from our data, if they occured in-between our weather recording intervals... More about our weather records

Advertising

Alajuela weather history for previous 24 hours

 ConditionsComfort  
Time TempWeatherWind HumidityBarometerVisibility
1:00 AM
Sat, Aug 29
73 °FPassing clouds.2 mph69%29.98 "HgN/A
12:00 AM72 °FPassing clouds.6 mph69%29.99 "HgN/A
11:00 PM
Fri, Aug 28
72 °FPassing clouds.No wind78%30.01 "HgN/A
10:00 PM72 °FPassing clouds.2 mph94%30.00 "HgN/A
9:00 PM72 °FPassing clouds.5 mph100%29.99 "Hg4 mi
8:00 PM73 °FPartly cloudy.2 mph89%29.97 "HgN/A
7:00 PM73 °FPartly cloudy.3 mph89%29.94 "HgN/A
6:00 PM73 °FPassing clouds.6 mph89%29.93 "HgN/A
5:00 PM75 °FScattered clouds.8 mph83%29.91 "HgN/A
4:00 PM79 °FScattered clouds.12 mph74%29.91 "HgN/A
3:00 PM81 °FScattered clouds.13 mph70%29.91 "HgN/A
2:00 PM82 °FScattered clouds.12 mph62%29.93 "HgN/A
1:00 PM84 °FScattered clouds.10 mph55%29.95 "HgN/A
12:00 PM86 °FPassing clouds.6 mph38%29.97 "HgN/A
11:00 AM84 °FPassing clouds.8 mph40%29.99 "HgN/A
10:00 AM84 °FSunny.12 mph37%30.00 "Hg10 mi
9:00 AM81 °FSunny.9 mph45%30.00 "Hg10 mi
8:00 AM77 °FSunny.10 mph54%30.00 "Hg10 mi
7:00 AM73 °FSunny.9 mph61%30.00 "Hg10 mi
6:00 AM70 °FSunny.9 mph69%29.98 "Hg10 mi
5:00 AM66 °FClear.6 mph78%29.98 "Hg10 mi
4:00 AM70 °FClear.6 mph69%29.96 "Hg10 mi
3:00 AM68 °FPassing clouds.6 mph73%29.96 "HgN/A
2:00 AM68 °FPassing clouds.7 mph73%29.98 "HgN/A
Weather by CustomWeather, © 2015

See weather overviewHow to use our weather pages